Ellensburg, WA

8:47 AM PDT on August 16, 2017 (GMT -0700)
Bowers

Weather History for KELN - September, 2013

Change the Weather History Date:

Friday, September 13, 2013

  Actual Average (KYKM) Record (KYKM)
Temperature  
Mean Temperature 78 °F -  
Max Temperature 96 °F 76 °F 97 °F (2013)
Min Temperature 59 °F 43 °F 28 °F (1970)
Cooling Degree Days 12    
Growing Degree Days 28 (Base 50)    
Moisture  
Dew Point 53 °F    
Average Humidity 47    
Maximum Humidity 78    
Minimum Humidity 21    
Precipitation  
Precipitation 0.00 in - - ()
Sea Level Pressure  
Sea Level Pressure 29.79 in    
Wind  
Wind Speed 7 mph (NNW)    
Max Wind Speed 16 mph    
Max Gust Speed 21 mph    
Visibility 10 miles    
Events      
Averages and records for this station are not official NWS values.
T = Trace of Precipitation, MM = Missing Value Source: NWS Daily Summary

Daily Weather History Graph

Daily Weather History Graph

Search for Another Location

Airport or City:

Trip Planner

Search our weather history database for the weather conditions in past years. The results will help you decide how hot, cold, wet, or windy it might be!

Date:

Astronomy

Sep. 13, 2013 Rise Set
Actual Time 6:37 AM PDT 7:17 PM PDT
Civil Twilight 6:06 AM PDT 7:47 PM PDT
Nautical Twilight 5:30 AM PDT 8:24 PM PDT
Astronomical Twilight 4:52 AM PDT 9:02 PM PDT
Moon 3:28 PM PDT (9/13) No Moon Set
Length of Visible Light 13h 41m
Length of Day
12h 39m
Waxing Gibbous, 62% of the Moon is Illuminated
Sep 13
Waxing Gibbous
Sep 19
Full
Sep 26
Last Quarter
Oct 4
New
Oct 11
First Quarter

Hourly Weather History & Observations

Time (PDT) Temp. Heat Index Dew Point Humidity Pressure Visibility Wind Dir Wind Speed Gust Speed Precip Events Conditions
12:53 AM 70.0 °F - 53.1 °F 55% 29.84 in 10.0 mi NNW 8.1 mph - N/A   Clear
1:53 AM 64.9 °F - 53.1 °F 65% 29.84 in 10.0 mi Calm Calm - N/A   Clear
2:53 AM 64.9 °F - 53.1 °F 65% 29.84 in 10.0 mi ENE 3.5 mph - N/A   Clear
3:53 AM 62.1 °F - 52.0 °F 70% 29.84 in 10.0 mi ENE 5.8 mph - N/A   Clear
4:53 AM 61.0 °F - 53.1 °F 75% 29.83 in 10.0 mi East 3.5 mph - N/A   Clear
5:53 AM 59.0 °F - 52.0 °F 78% 29.83 in 10.0 mi East 4.6 mph - N/A   Clear
6:53 AM 59.0 °F - 52.0 °F 78% 29.85 in 10.0 mi Calm Calm - N/A   Clear
7:53 AM 66.9 °F - 54.0 °F 63% 29.86 in 10.0 mi ENE 3.5 mph - N/A   Clear
8:53 AM 72.0 °F - 57.0 °F 59% 29.85 in 10.0 mi East 3.5 mph - N/A   Clear
9:53 AM 82.0 °F 81.4 °F 55.0 °F 39% 29.84 in 10.0 mi WNW 11.5 mph - N/A   Clear
10:53 AM 86.0 °F 84.2 °F 54.0 °F 33% 29.83 in 10.0 mi WNW 9.2 mph - N/A   Clear
11:53 AM 91.0 °F - 52.0 °F 26% 29.81 in 10.0 mi NW 6.9 mph - N/A   Clear
12:53 PM 93.0 °F - 48.0 °F 21% 29.78 in 10.0 mi Calm Calm - N/A   Clear
1:53 PM 95.0 °F - 48.9 °F 21% 29.77 in 10.0 mi West 3.5 mph - 0.00 in   Clear
2:53 PM 96.1 °F - 52.0 °F 22% 29.75 in 10.0 mi WSW 6.9 mph - N/A   Clear
3:53 PM 96.1 °F 93.8 °F 54.0 °F 24% 29.74 in 10.0 mi NW 9.2 mph - N/A   Clear
4:53 PM 91.9 °F 89.5 °F 54.0 °F 27% 29.73 in 10.0 mi NW 16.1 mph - N/A   Clear
5:53 PM 88.0 °F 85.7 °F 53.1 °F 30% 29.73 in 10.0 mi NW 16.1 mph - N/A   Clear
6:53 PM 82.9 °F - 52.0 °F 34% 29.73 in 10.0 mi NW 15.0 mph - N/A   Clear
7:53 PM 79.0 °F - 53.1 °F 40% 29.74 in 10.0 mi NW 13.8 mph - N/A   Clear
8:53 PM 75.9 °F - 54.0 °F 46% 29.76 in 10.0 mi WNW 9.2 mph - N/A   Clear
9:53 PM 73.9 °F - 54.0 °F 50% 29.76 in 10.0 mi WNW 8.1 mph - N/A   Clear
10:53 PM 73.9 °F - 54.0 °F 50% 29.76 in 10.0 mi NW 15.0 mph 20.7 mph N/A   Clear
11:53 PM 73.0 °F - 54.0 °F 51% 29.77 in 10.0 mi NNW 10.4 mph - N/A   Clear